User: anonymous   Login
Location: Unspecified
(0.0000°N, 0.0000°E)
Time: 18:07:36
(UTC+00:00)
Language:

STARLINK-5357 - Orbit

View from above orbital plane
View from above orbital plane
View from above satellite
View from above satellite

Ground track
Ground track

The orbit is defined by the following mean orbital elements,

1 57141U          26145.43268654 +.00000000 +00000-0 +52150-4 0 00004
2 57141  43.0000 189.6504 0001362 298.8516  61.2198 15.27583575    06
Epoch (UTC): 25 May 2026 10:23:04
Eccentricity: 0.0001362
inclination: 43.0000°
perigee height: 482 km
apogee height: 484 km
right ascension of ascending node: 189.6504°
argument of perigee: 298.8516°
revolutions per day: 15.27583575
mean anomaly at epoch: 61.2198°

The dashed part of the orbit path shows where the satellite is in the earth's shadow,  

DLR